| time (UTC) | temp F | wind direction | speed MPH | gust MPH | rain 1hr in | rain 24hr in | rain mn in | humidity % | barometer mb |
| 20260902195248 | 93 | 208 | 0.0 | 3.0 | 0.00 | 0.00 | 0.00 | 54 | 1013.8 |
| 20260902193109 | 92 | 207 | 0.0 | 3.0 | 0.00 | 0.00 | 0.00 | 58 | 1014.0 |
| 20260902190952 | 92 | 242 | 0.0 | 5.0 | 0.00 | 0.00 | 0.00 | 56 | 1014.3 |
| 20260902185942 | 93 | 287 | 0.0 | 4.0 | 0.00 | 0.00 | 0.00 | 55 | 1014.3 |
| 20260902184922 | 93 | 191 | 0.0 | 2.0 | 0.00 | 0.00 | 0.00 | 56 | 1014.3 |
| 20260902183937 | 93 | 191 | 0.0 | 3.0 | 0.00 | 0.00 | 0.00 | 56 | 1014.5 |
| 20260902182950 | 93 | 97 | 0.0 | 3.0 | 0.00 | 0.00 | 0.00 | 58 | 1014.6 |
| 20260902180843 | 92 | 293 | 0.0 | 3.0 | 0.00 | 0.00 | 0.00 | 57 | 1014.8 |
| 20260902175856 | 92 | 202 | 1.0 | 3.0 | 0.00 | 0.00 | 0.00 | 57 | 1014.9 |
| 20260902174830 | 92 | 183 | 0.0 | 3.0 | 0.00 | 0.00 | 0.00 | 59 | 1015.0 |
| 20260902172644 | 91 | 284 | 0.0 | 4.0 | 0.00 | 0.00 | 0.00 | 59 | 1015.3 |
| 20260902170503 | 91 | 223 | 0.0 | 3.0 | 0.00 | 0.00 | 0.00 | 61 | 1015.5 |
| 20260902165515 | 91 | 223 | 0.0 | 2.0 | 0.00 | 0.00 | 0.00 | 62 | 1015.5 |
| 20260902164527 | 91 | 250 | 0.0 | 3.0 | 0.00 | 0.00 | 0.00 | 62 | 1015.6 |
| 20260902161251 | 89 | 246 | 0.0 | 0.0 | 0.00 | 0.00 | 0.00 | 65 | 1015.7 |
| 20260902155058 | 89 | 191 | 0.0 | 0.0 | 0.00 | 0.00 | 0.00 | 67 | 1015.9 |
| 20260902154048 | 88 | 192 | 0.0 | 2.0 | 0.00 | 0.00 | 0.00 | 67 | 1015.9 |
| 20260902153041 | 87 | 192 | 0.0 | 2.0 | 0.00 | 0.00 | 0.00 | 69 | 1015.9 |
| 20260902150917 | 86 | 176 | 0.0 | 0.0 | 0.00 | 0.00 | 0.00 | 75 | 1016.0 |
| 20260902145900 | 84 | 176 | 0.0 | 2.0 | 0.00 | 0.00 | 0.00 | 74 | 1016.0 |
| 20260902144921 | 84 | 177 | 0.0 | 1.0 | 0.00 | 0.00 | 0.00 | 77 | 1016.0 |
| 20260902143853 | 83 | 175 | 0.0 | 1.0 | 0.00 | 0.00 | 0.00 | 77 | 1015.9 |
| 20260902142900 | 82 | 208 | 0.0 | 2.0 | 0.00 | 0.00 | 0.00 | 78 | 1015.9 |
| 20260902140723 | 81 | 275 | 0.0 | 1.0 | 0.00 | 0.00 | 0.00 | 82 | 1015.8 |
| 20260902135742 | 81 | 275 | 0.0 | 0.0 | 0.00 | 0.00 | 0.00 | 82 | 1015.8 |
| 20260902133543 | 79 | 186 | 0.0 | 1.0 | 0.00 | 0.00 | 0.00 | 83 | 1015.7 |
| 20260902132607 | 78 | 186 | 0.0 | 0.0 | 0.00 | 0.00 | 0.00 | 85 | 1015.8 |
| 20260902131540 | 77 | 186 | 0.0 | 0.0 | 0.00 | 0.00 | 0.00 | 87 | 1015.7 |
| 20260902130535 | 76 | 186 | 0.0 | 1.0 | 0.00 | 0.00 | 0.00 | 90 | 1015.8 |
| 20260902125517 | 75 | 186 | 0.0 | 1.0 | 0.00 | 0.00 | 0.00 | 93 | 1015.7 |
| 20260902124514 | 74 | 186 | 0.0 | 0.0 | 0.00 | 0.00 | 0.00 | 94 | 1015.6 |
| 20260902123500 | 73 | 186 | 0.0 | 0.0 | 0.00 | 0.00 | 0.00 | 95 | 1015.6 |
| 20260902122515 | 73 | 186 | 0.0 | 0.0 | 0.00 | 0.00 | 0.00 | 95 | 1015.6 |
| 20260902121514 | 72 | 186 | 0.0 | 0.0 | 0.00 | 0.00 | 0.00 | 96 | 1015.5 |
| 20260902120456 | 72 | 186 | 0.0 | 0.0 | 0.00 | 0.00 | 0.00 | 95 | 1015.6 |
| 20260902115446 | 72 | 186 | 0.0 | 0.0 | 0.00 | 0.00 | 0.00 | 95 | 1015.5 |
| 20260902114425 | 71 | 186 | 0.0 | 0.0 | 0.00 | 0.00 | 0.00 | 95 | 1015.5 |
| 20260902113427 | 71 | 186 | 0.0 | 1.0 | 0.00 | 0.00 | 0.00 | 95 | 1015.5 |
| 20260902112422 | 71 | 186 | 0.0 | 0.0 | 0.00 | 0.00 | 0.00 | 94 | 1015.4 |
| 20260902111436 | 71 | 186 | 0.0 | 0.0 | 0.00 | 0.00 | 0.00 | 94 | 1015.3 |
| 20260902110440 | 71 | 186 | 0.0 | 0.0 | 0.00 | 0.00 | 0.00 | 94 | 1015.2 |
| 20260902105456 | 71 | 186 | 0.0 | 0.0 | 0.00 | 0.00 | 0.00 | 94 | 1015.2 |
| 20260902104447 | 71 | 186 | 0.0 | 0.0 | 0.00 | 0.00 | 0.00 | 94 | 1015.0 |
| 20260902101251 | 71 | 186 | 0.0 | 0.0 | 0.00 | 0.00 | 0.00 | 94 | 1015.1 |
| 20260902100227 | 71 | 186 | 0.0 | 0.0 | 0.00 | 0.00 | 0.00 | 94 | 1015.2 |
| 20260902095251 | 72 | 186 | 0.0 | 0.0 | 0.00 | 0.00 | 0.00 | 94 | 1015.2 |
| 20260902094310 | 72 | 186 | 0.0 | 0.0 | 0.00 | 0.00 | 0.00 | 93 | 1015.1 |
| 20260902093241 | 72 | 186 | 0.0 | 0.0 | 0.00 | 0.00 | 0.00 | 93 | 1015.1 |
| 20260902092255 | 72 | 186 | 0.0 | 0.0 | 0.00 | 0.00 | 0.00 | 93 | 1015.2 |
| 20260902091256 | 72 | 186 | 0.0 | 0.0 | 0.00 | 0.00 | 0.00 | 93 | 1015.1 |
| 20260902090226 | 72 | 186 | 0.0 | 0.0 | 0.00 | 0.00 | 0.00 | 93 | 1015.1 |
| 20260902085237 | 72 | 186 | 0.0 | 0.0 | 0.00 | 0.00 | 0.00 | 93 | 1015.2 |
| 20260902084250 | 72 | 186 | 0.0 | 0.0 | 0.00 | 0.00 | 0.00 | 93 | 1015.1 |
| 20260902083313 | 73 | 186 | 0.0 | 0.0 | 0.00 | 0.00 | 0.00 | 93 | 1015.0 |
| 20260902082309 | 73 | 186 | 0.0 | 0.0 | 0.00 | 0.00 | 0.00 | 93 | 1014.9 |
| 20260902081250 | 73 | 186 | 0.0 | 0.0 | 0.00 | 0.00 | 0.00 | 92 | 1014.8 |
| 20260902080301 | 73 | 186 | 0.0 | 0.0 | 0.00 | 0.00 | 0.00 | 92 | 1014.8 |
| 20260902075321 | 73 | 186 | 0.0 | 0.0 | 0.00 | 0.00 | 0.00 | 92 | 1014.7 |
| 20260902074344 | 73 | 186 | 0.0 | 0.0 | 0.00 | 0.00 | 0.00 | 92 | 1014.7 |
| 20260902073345 | 73 | 186 | 0.0 | 0.0 | 0.00 | 0.00 | 0.00 | 92 | 1014.6 |
| 20260902072402 | 73 | 186 | 0.0 | 0.0 | 0.00 | 0.00 | 0.00 | 91 | 1014.6 |
| 20260902071421 | 74 | 186 | 0.0 | 0.0 | 0.00 | 0.00 | 0.00 | 91 | 1014.7 |
| 20260902070400 | 74 | 186 | 0.0 | 0.0 | 0.00 | 0.00 | 0.00 | 91 | 1014.6 |
| 20260902065409 | 74 | 186 | 0.0 | 0.0 | 0.00 | 0.00 | 0.00 | 91 | 1014.5 |
| 20260902064353 | 74 | 186 | 0.0 | 0.0 | 0.00 | 0.00 | 0.00 | 90 | 1014.6 |
| 20260902063340 | 74 | 186 | 0.0 | 0.0 | 0.00 | 0.00 | 0.00 | 90 | 1014.6 |
| 20260902062333 | 75 | 186 | 0.0 | 0.0 | 0.00 | 0.00 | 0.00 | 90 | 1014.6 |
| 20260902061319 | 75 | 186 | 0.0 | 0.0 | 0.00 | 0.00 | 0.00 | 89 | 1014.6 |
| 20260902060248 | 75 | 186 | 0.0 | 0.0 | 0.00 | 0.00 | 0.00 | 89 | 1014.5 |
| 20260902055253 | 75 | 186 | 0.0 | 0.0 | 0.00 | 0.00 | 0.00 | 88 | 1014.5 |
| 20260902054236 | 76 | 186 | 0.0 | 0.0 | 0.00 | 0.00 | 0.00 | 87 | 1014.5 |
| 20260902053224 | 76 | 186 | 0.0 | 0.0 | 0.00 | 0.00 | 0.00 | 87 | 1014.4 |
| 20260902052218 | 77 | 186 | 0.0 | 0.0 | 0.00 | 0.00 | 0.00 | 86 | 1014.3 |
| 20260902051151 | 77 | 186 | 0.0 | 0.0 | 0.00 | 0.00 | 0.00 | 85 | 1014.3 |
| 20260902050122 | 78 | 186 | 0.0 | 0.0 | 0.00 | 0.00 | 0.00 | 85 | 1014.4 |
| 20260902045141 | 78 | 186 | 0.0 | 0.0 | 0.00 | 0.00 | 0.00 | 84 | 1014.3 |
| 20260902044204 | 78 | 186 | 0.0 | 0.0 | 0.00 | 0.00 | 0.00 | 83 | 1014.2 |
| 20260902043213 | 79 | 186 | 0.0 | 0.0 | 0.00 | 0.00 | 0.00 | 82 | 1014.2 |
| 20260902042212 | 79 | 186 | 0.0 | 0.0 | 0.00 | 0.00 | 0.00 | 82 | 1014.3 |
| 20260902041140 | 80 | 186 | 0.0 | 0.0 | 0.00 | 0.00 | 0.00 | 82 | 1014.2 |
| 20260902040130 | 80 | 186 | 0.0 | 0.0 | 0.00 | 0.00 | 0.00 | 81 | 1014.2 |
| 20260902035109 | 80 | 186 | 0.0 | 0.0 | 0.00 | 0.00 | 0.00 | 81 | 1014.1 |
| 20260902034116 | 80 | 186 | 0.0 | 1.0 | 0.00 | 0.00 | 0.00 | 82 | 1014.1 |
| 20260902033124 | 80 | 186 | 0.0 | 0.0 | 0.00 | 0.00 | 0.00 | 82 | 1014.2 |
| 20260902030926 | 80 | 186 | 0.0 | 1.0 | 0.00 | 0.00 | 0.00 | 83 | 1014.1 |
| 20260902025919 | 80 | 186 | 0.0 | 0.0 | 0.00 | 0.00 | 0.00 | 83 | 1014.3 |
| 20260902024855 | 80 | 186 | 0.0 | 0.0 | 0.00 | 0.00 | 0.00 | 83 | 1014.3 |
| 20260902023842 | 80 | 186 | 0.0 | 0.0 | 0.00 | 0.00 | 0.00 | 83 | 1014.3 |
| 20260902021715 | 79 | 186 | 0.0 | 0.0 | 0.00 | 0.00 | 0.00 | 84 | 1014.3 |
| 20260902020702 | 80 | 186 | 0.0 | 0.0 | 0.00 | 0.00 | 0.00 | 84 | 1014.2 |
| 20260902015653 | 80 | 186 | 0.0 | 0.0 | 0.00 | 0.00 | 0.00 | 84 | 1014.2 |
| 20260902014636 | 80 | 186 | 0.0 | 0.0 | 0.00 | 0.00 | 0.00 | 83 | 1014.2 |
| 20260902013646 | 81 | 186 | 0.0 | 0.0 | 0.00 | 0.00 | 0.00 | 83 | 1014.2 |
| 20260902012654 | 81 | 186 | 0.0 | 0.0 | 0.00 | 0.00 | 0.00 | 82 | 1014.2 |
| 20260902011704 | 81 | 186 | 0.0 | 0.0 | 0.00 | 0.00 | 0.00 | 82 | 1014.0 |
| 20260902010644 | 82 | 186 | 0.0 | 0.0 | 0.00 | 0.00 | 0.00 | 81 | 1013.9 |
| 20260902005640 | 82 | 186 | 0.0 | 0.0 | 0.00 | 0.00 | 0.00 | 80 | 1013.9 |
| 20260902004642 | 83 | 186 | 0.0 | 0.0 | 0.00 | 0.00 | 0.00 | 79 | 1013.9 |
| 20260902002452 | 84 | 186 | 0.0 | 0.0 | 0.00 | 0.00 | 0.00 | 76 | 1013.7 |
| 20260902001426 | 85 | 186 | 0.0 | 0.0 | 0.00 | 0.00 | 0.00 | 75 | 1013.8 |
| 20260902000401 | 86 | 186 | 0.0 | 0.0 | 0.00 | 0.00 | 0.00 | 73 | 1013.9 |
| 20260901235404 | 87 | 186 | 0.0 | 0.0 | 0.00 | 0.00 | 0.00 | 71 | 1014.0 |
| 20260901233258 | 88 | 186 | 0.0 | 0.0 | 0.00 | 0.00 | 0.00 | 68 | 1014.2 |
| 20260901232245 | 89 | 186 | 0.0 | 2.0 | 0.00 | 0.00 | 0.00 | 66 | 1014.4 |
| 20260901230154 | 89 | 186 | 0.0 | 0.0 | 0.00 | 0.00 | 0.00 | 67 | 1014.3 |
| 20260901225157 | 89 | 186 | 0.0 | 0.0 | 0.00 | 0.00 | 0.00 | 66 | 1014.4 |
| 20260901224156 | 90 | 186 | 0.0 | 4.0 | 0.00 | 0.00 | 0.00 | 64 | 1014.4 |
| 20260901223144 | 90 | 186 | 0.0 | 2.0 | 0.00 | 0.00 | 0.00 | 63 | 1014.4 |
| 20260901222138 | 90 | 161 | 0.0 | 1.0 | 0.00 | 0.00 | 0.00 | 64 | 1014.4 |
| 20260901220025 | 90 | 232 | 0.0 | 3.0 | 0.00 | 0.00 | 0.00 | 65 | 1014.5 |
| 20260901213902 | 90 | 187 | 0.0 | 3.0 | 0.00 | 0.00 | 0.00 | 64 | 1014.6 |
| 20260901212849 | 90 | 188 | 0.0 | 3.0 | 0.00 | 0.00 | 0.00 | 64 | 1014.6 |
| 20260901211845 | 90 | 262 | 0.0 | 0.0 | 0.00 | 0.00 | 0.00 | 65 | 1014.6 |
| 20260901210859 | 90 | 263 | 0.0 | 3.0 | 0.00 | 0.00 | 0.00 | 62 | 1014.7 |
| 20260901203612 | 90 | 238 | 0.0 | 3.0 | 0.00 | 0.00 | 0.00 | 61 | 1014.6 |
| 20260901202557 | 91 | 198 | 0.0 | 3.0 | 0.00 | 0.00 | 0.00 | 61 | 1014.6 |
| 20260901201543 | 91 | 235 | 0.0 | 2.0 | 0.00 | 0.00 | 0.00 | 60 | 1014.5 |
| 20260901200524 | 91 | 209 | 0.0 | 5.0 | 0.00 | 0.00 | 0.00 | 60 | 1014.5 |